Regional Weather Roundup
Issued by NWS Goodland, KS

Home | Current Version | Previous Version | Graphics & Text | Print | Product List | Glossary On
Versions: 1 2 3 4 5 6 7 8 9 10 11 12 13 14 15 16 17 18 19 20 21 22 23 24 25 26 27 28 29 30 31 32 33 34 35 36 37 38 39 40 41 42 43 44 45 46 47 48 49 50
075
ASUS43 KGLD 270859
RWRGLD

GOODLAND FORECAST AREA HOURLY WEATHER ROUNDUP
NATIONAL WEATHER SERVICE GOODLAND KS
300 AM MDT MON MAR 27 2017

...OFFICIAL OBSERVATIONS...

CITY           SKY/WX    TMP DP  RH WIND       PRES   REMARKS
GOODLAND KS    CLEAR     35  34  96 W9        29.92F
HILL CITY KS   CLEAR     36  36 100 NW6       29.94S FOG
IMPERIAL NEB   CLEAR     37  34  89 W8        29.91F
MCCOOK NEB     CLEAR     35  35 100 SW5       29.93S
AKRON CO       CLEAR     35  31  85 NW6       29.94F
BURLINGTON CO  CLEAR     36  34  92 W12       29.94S
LIMON CO       PTCLDY    30  30 100 N5        29.96F
$$

...UNOFFICIAL OBSERVATIONS...

CITY           SKY/WX    TMP DP  RH WIND       PRES   REMARKS
LENORA KS        N/A     37  32  82 CALM        N/A
NORTON KS        N/A     34  30  86 NW6       29.93R FOG
SHARON SPRINGS   N/A     35  34  96 SW6         N/A
TRENTON NEB      N/A     34  32  92 SW5         N/A
YUMA CO        FAIR      32  30  93 W9        29.93F
$$




USA.gov is the U.S. government's official web portal to all federal, state and local government web resources and services.